OpenBCM V2.0.3 (Linux)

Packet Radio Mailbox

IZ3LSV

[San Dona' di P. JN]

 Login: GUEST





  
I0OJJ  > AMSAT    28.05.26 02:32l 329 Lines 15513 Bytes #999 (0) @ WW
BID : 1XT_IR0EQ
Read: GUEST
Subj: 2Line Orbital Elements
Path: IZ3LSV<I0OJJ<IR0EQ
Sent: 260528/0027z @:IR0EQ.ITA.EU [Rome] $:1XT_IR0EQ

>From i0ojj%ir0eq.ita.eu@i0ojj.ampr.org Thu May 28 02:31:46 2026
Received: from i0ojj.ampr.org by i0ojj.ampr.org (JNOS2.0q.1) with SMTP
	id AA17060928 ; Thu, 28 May 2026 02:31:46 +0200
Message-Id: <1XT_IR0EQ@i0ojj.bbs>
>From: i0ojj@ir0eq.ita.eu
X-JNOS-User-Port: Telnet   (i0ojj @ 44.27.18.9)  ->   Sending message

>From i0ojj@rgate.ampr.org Thu May 28 02:27:48 2026
Received: from rgate.ampr.org by rgate.ampr.org (JNOS2.0q.1) with SMTP
	id AA2513 ; Thu, 28 May 2026 02:27:48 +0200
Received: by rgate.ampr.org with SMTP
	id AA2510 ; Thu, 28 May 2026 02:26:57 +0200
Message-Id: <2511@rgate.ampr.org>
>From: i0ojj@rgate.ampr.org

SB KEPS @ AMSAT  $ORB26148.1
2Line Orbital Elements 26148.AMSAT

QST de W1STR

AMSAT Orbital Elements for Amateur Satellites in TLE Format
>From Orbital Analysis Office
New England Sci-Tech STEM Education Center
Natick MA May 28, 2026
To all radio amateurs


These element sets describe the orbits of various satellites 
in use by the amateur radio community. For details see:
www.amsat.org/keplerian-elements-formats/

A daily update of element sets is available at:
www.amsat.org/tle/daily-bulletin.txt
or without bulletin text:
www.amsat.org/tle/dailytle.txt


AO-07
1 07530U 74089B   26147.87706624 -.00000023  00000-0  14397-3 0  9996
2 07530 101.9905 160.9117 0012351 168.1995 265.5173 12.53697743357975
UO-11
1 14781U 84021B   26147.88358694  .00001167  00000-0  12458-3 0  9995
2 14781  97.8045 113.6877 0006119 247.3582 112.6989 14.90726477254102
AO-27
1 22825U 93061C   26147.72190558  .00000104  00000-0  56693-4 0  9993
2 22825  98.6886 215.1419 0008910 153.7943 206.3692 14.30935848704070
FO-29
1 24278U 96046B   26147.83094006 -.00000008  00000-0  25555-4 0  9993
2 24278  98.5261 359.4898 0350405 149.1331 213.0932 13.53273310470415
GO-32
1 25397U 98043D   26147.69389207  .00000079  00000-0  54501-4 0  9999
2 25397  99.0063 139.9366 0000265 308.6418  51.4736 14.24423868448414
ISS
1 25544U 98067A   26147.87315056  .00011618  00000-0  21538-3 0  9994
2 25544  51.6334  40.6657 0007402 105.3779 254.8028 15.49428223568601
NO-44
1 26931U 01043C   26147.76440672  .00000157  00000-0  89562-4 0  9992
2 26931  67.0510 297.0935 0006161 263.8585  96.1815 14.31947223287528
SO-50
1 27607U 02058C   26147.52068017  .00000988  00000-0  13386-3 0  9995
2 27607  64.5511 192.9251 0075590 266.2597  92.9863 14.82996288261393
CO-55
1 27844U 03031E   26147.73540726  .00000320  00000-0  15743-3 0  9994
2 27844  98.6739 156.5518 0008418 241.3848 118.6484 14.24321351188769
RS-22
1 27939U 03042A   26147.84916978  .00001521  00000-0  24265-3 0  9992
2 27939  98.3471 331.6348 0010836 340.0531 132.2296 14.73427194212558
CO-65
1 32785U 08021C   26147.89615640  .00007012  00000-0  44436-3 0  9999
2 32785  97.8261 128.8972 0010621  97.0002 263.2434 15.09225333982135
CO-66
1 32791U 08021J   26147.50077406  .00021063  00000-0  68450-3 0  9990
2 32791  97.7516 144.4236 0003958  54.7772 305.3839 15.31935568984121
RS-30
1 32953U 08025A   26147.81799461 -.00000051  00000-0 -44114-3 0  9997
2 32953  82.5060   8.1125 0019736 359.0337   1.0701 12.43178054817165
SRMSAT
1 37841U 11058D   26147.81173669  .00000392  00000-0  68880-4 0  9997
2 37841  19.9701 182.8000 0011724 341.0129 184.6826 14.11570726754933
ZACUBE-1
1 39417U 13066B   26147.87649052  .00005483  00000-0  42697-3 0  9992
2 39417  97.8103 110.1029 0040182 319.7958  40.0295 15.01016981677681
Delfi-N3xt
1 39428U 13066N   26147.76350237  .00007293  00000-0  64039-3 0  9991
2 39428  97.8341  68.0966 0073220 275.0804  84.2062 14.94828206671577
GOMX-1
1 39430U 13066Q   26147.82532140  .00002526  00000-0  38313-3 0  9996
2 39430  97.6501 349.5733 0129612 142.3466 218.6902 14.69366762666927
LO-74
1 39440U 13066AA  26147.76517999  .00004082  00000-0  37950-3 0  9990
2 39440  97.8895  96.6616 0059470  94.9275 265.8737 14.93574326673944
AO-73
1 39444U 13066AE  26147.63764587  .00008252  00000-0  51627-3 0  9997
2 39444  97.8263 118.6600 0034356 274.0293  85.7008 15.09192290676567
DTUSAT-2
1 40030U 14033W   26147.43111913  .00008360  00000-0  45505-3 0  9990
2 40030  98.0861 143.8458 0006467 315.3494  44.7215 15.14705644649544
LILACSAT-2
1 40908U 15049K   26147.82166146  .00020993  00000-0  36670-3 0  9992
2 40908  97.4673 183.8976 0005918 342.5032  17.6014 15.50683177592595
Horyu-4
1 41340U 16012D   26147.58366073  .00254045  00000-0  11138-2 0  9996
2 41340  30.9868 228.7908 0002846 139.6866 220.4003 15.82832980567536
Lapan A3
1 41603U 16040E   26147.89144516  .00003982  00000-0  12718-3 0  9997
2 41603  97.1482 144.7070 0012242  89.0192 271.2453 15.32958188551702
CAS-2T
1 41847U 16066G   26147.80792535  .00001558  00000-0  22730-3 0  9998
2 41847  98.3823 223.7759 0341846 191.2088 168.1351 14.44620815501858
TechnoSat
1 42829U 17042E   26147.83625378  .00003942  00000-0  28230-3 0  9997
2 42829  97.4267 306.2742 0018450 158.3773 201.8236 15.04817265483644
AO-91
1 43017U 17073E   26147.56758640  .00012179  00000-0  53101-3 0  9997
2 43017  97.4743  15.2084 0152866  40.3932 320.8531 15.12294994462279
S-Net D
1 43186U 18014G   26147.67815250  .00006488  00000-0  33656-3 0  9992
2 43186  97.5384  52.5983 0010100  89.7744 270.4646 15.16445441455652
S-Net B
1 43187U 18014H   26147.68920584  .00006426  00000-0  33363-3 0  9998
2 43187  97.5389  52.5953 0010701  85.8169 274.4287 15.16415047455654
S-Net A
1 43188U 18014J   26147.67713681  .00006476  00000-0  33584-3 0  9996
2 43188  97.5400  52.7880 0010612  86.5586 273.6861 15.16452828455659
S-Net C
1 43189U 18014K   26147.69297514  .00006259  00000-0  32501-3 0  9998
2 43189  97.5418  52.8754 0011940  80.2324 280.0257 15.16406170454206
Ten-Koh
1 43677U 18084G   26147.48403113  .00003419  00000-0  26000-3 0  9990
2 43677  98.0759 338.9752 0009546 184.0666 176.0482 15.02827508413058
PO-101
1 43678U 18084H   26147.82940877  .00003034  00000-0  24678-3 0  9994
2 43678  98.1141 343.1599 0011660 239.4669 120.5403 15.00340955413163
QO-100
1 43700U 18090A   26147.72775853  .00000151  00000-0  00000+0 0  9992
2 43700   0.0127 284.4571 0001865 173.2650  75.3594  1.00274288 27476
MinXSS-2
1 43758U 18099A   26147.77047711  .00039009  00000-0  81545-3 0  9995
2 43758  97.4548 223.4789 0006184 346.2474  13.8606 15.45371171410970
AO-95
1 43770U 18099N   26147.69092024  .00013644  00000-0  52913-3 0  9991
2 43770  97.4401 208.0187 0010017  67.2029 293.0266 15.26198399410094
SNUSat 2
1 43782U 18099AA  26147.68497361  .00010135  00000-0  45296-3 0  9994
2 43782  97.4077 201.3873 0010360  17.8041 342.3556 15.21476291409914
SnugLite
1 43784U 18099AC  26147.69752535  .00014254  00000-0  54565-3 0  9999
2 43784  97.3887 202.1850 0003024  36.3291 323.8153 15.26659186410190
ITASat 1
1 43786U 18099AE  26147.73115273  .00008112  00000-0  39255-3 0  9993
2 43786  97.4045 199.6536 0014093  68.4495 291.8240 15.18751435409808
EAGLET 1
1 43790U 18099AJ  26147.68107765  .00005345  00000-0  30789-3 0  9997
2 43790  97.4249 197.8940 0012500  61.8712 298.3781 15.12756591409239
ESEO
1 43792U 18099AL  26147.69158755  .00001441  00000-0  10782-3 0  9999
2 43792  97.3989 185.9578 0013546  50.1731 310.0685 15.04176345408721
JO-97
1 43803U 18099AX  26147.73445051  .00019686  00000-0  62080-3 0  9993
2 43803  97.4144 210.5072 0004871 359.9431   0.1810 15.32904545410496
Suomi 100
1 43804U 18099AY  26147.71109505  .00015047  00000-0  55446-3 0  9998
2 43804  97.4207 208.1867 0009481   2.5342 357.5944 15.27874318410299
ISAT
1 43879U 18111D   26147.80911983  .00091091  00000-0  10570-2 0  9997
2 43879  97.5900  81.5203 0005611  56.0057 304.1732 15.61465379407983
UWE-4
1 43880U 18111E   26147.75479860  .00037489  00000-0  80158-3 0  9997
2 43880  97.5857  75.2249 0009442  51.7759 308.4338 15.44686892407629
Sparrow
1 43881U 18111F   26147.81881554  .00133039  00000-0  11600-2 0  9995
2 43881  97.6132  86.8166 0006313  91.7026 268.4958 15.68552217408171
Prox-1
1 44339U 19036A   26147.56949050  .00015640  00000-0  15502-2 0  9991
2 44339  23.9951 251.9242 0006284 147.7223 212.3661 14.90054409370394
Taurus 1
1 44530U 19059C   26147.85001693  .00008520  00000-0  13690-2 0  9998
2 44530  98.6398 311.4225 0008502  24.8138 335.3474 14.71842814355653
TO-108
1 44881U 19093C   26147.85070980  .00000652  00000-0  79719-4 0  9994
2 44881  97.7536 220.5786 0014198 148.2182 211.9894 14.86479749348393
RS-44
1 44909U 19096E   26147.83431778  .00000033  00000-0  88279-4 0  9996
2 44909  82.5225 353.2324 0217241 191.7017 167.8990 12.79748475299742
SALSAT
1 46495U 20068K   26147.73561117  .00009553  00000-0  33687-3 0  9997
2 46495  97.8850 149.5608 0010266  24.8693 335.3039 15.29454064312234
CSS (TIANHE-1)
1 48274U 21035A   26147.87962256  .00016105  00000-0  19772-3 0  9993
2 48274  41.4683  85.5029 0010781 293.4898  66.4807 15.59880154289996
CUTE
1 49263U 21088D   26147.78740713  .00336464  00000-0  15058-2 0  9997
2 49263  97.4187 245.2306 0004373 261.6119  98.4654 15.83318425259313
TeikyoSat 4
1 49396U 21102B   26147.63694412  .00002141  00000-0  13750-3 0  9999
2 49396  97.3683 177.9193 0012256  12.2346 347.9179 15.09423152249625
Z-Sat
1 49399U 21102E   26147.83171875  .00005217  00000-0  25843-3 0  9990
2 49399  97.3342 183.7731 0015562 323.5206  36.4967 15.18087102250357
KOSEN 1
1 49402U 21102H   26147.62646678  .00008187  00000-0  31570-3 0  9993
2 49402  97.3204 190.1861 0011880 280.9668  79.0234 15.26505993250882
HO-113
1 50466U 21131B   26147.85348358  .00000524  00000-0  17540-3 0  9994
2 50466  98.4967 240.3545 0004769 145.6181 214.5317 14.41334925232186
SNUGLITE 2
1 52899U 22065F   26147.66829227  .00001082  00000-0  21419-3 0  9991
2 52899  98.2176 292.5389 0008791  89.5604 270.6606 14.64302482207991
